This is the latest recevied weather packets stored in our database for station/object N4JTC. If no packets are shown the sender has not sent any weather packets the latest 10 day(s).
| Time | Temp. | Humidity | Pressure | Rain* | Wind** | Luminosity | Snow |
|---|---|---|---|---|---|---|---|
| 1778024403 | 23.89° C | 85% | 1015.3 hPa | 0 mm | - | 41 W/m² | - |
| 1778024103 | 23.89° C | 83% | 1015.5 hPa | 0 mm | - | 37 W/m² | - |
| 1778023803 | 24.44° C | 81% | 1015.4 hPa | 0 mm | - | 42 W/m² | - |
| 1778023503 | 24.44° C | 80% | 1015.5 hPa | 0 mm | - | 70 W/m² | - |
| 1778023203 | 25° C | 78% | 1015.2 hPa | 0 mm | - | 98 W/m² | - |
| 1778022903 | 25° C | 75% | 1015.1 hPa | 0 mm | - | 78 W/m² | - |
| 1778022302 | 25.56° C | 73% | 1015.1 hPa | 0 mm | - | 144 W/m² | - |
| 1778021704 | 25.56° C | 72% | 1015.4 hPa | 0 mm | - | 172 W/m² | - |
| 1778021403 | 25.56° C | 71% | 1015.4 hPa | 0 mm | - | 188 W/m² | - |
| 1778021103 | 25.56° C | 67% | 1015.4 hPa | 0 mm | - | 189 W/m² | - |
| 1778020803 | 25.56° C | 68% | 1015.4 hPa | 0 mm | - | 239 W/m² | - |
| 1778020503 | 25.56° C | 65% | 1015.4 hPa | 0 mm | - | 224 W/m² | - |
| 1778019903 | 26.11° C | 68% | 1015.5 hPa | 0 mm | - | 308 W/m² | - |
| 1778019603 | 26.11° C | 66% | 1015.1 hPa | 0 mm | - | 288 W/m² | - |
| 1778019303 | 26.11° C | 63% | 1015.3 hPa | 0 mm | - | 348 W/m² | - |
| 1778018703 | 25.56° C | 63% | 1015.3 hPa | 0 mm | - | 332 W/m² | - |
| 1778018403 | 26.11° C | 63% | 1015.3 hPa | 0 mm | - | 261 W/m² | - |
| 1778018103 | 26.11° C | 64% | 1015.2 hPa | 0 mm | - | 399 W/m² | - |
| 1778017503 | 26.11° C | 68% | 1015.3 hPa | 0 mm | - | 383 W/m² | - |
| 1778017203 | 26.11° C | 68% | 1015.3 hPa | 0 mm | - | 380 W/m² | - |
| 1778016903 | 26.11° C | 68% | 1015.3 hPa | 0 mm | - | 435 W/m² | - |
| 1778016303 | 26.67° C | 63% | 1015.5 hPa | 0 mm | - | 380 W/m² | - |
| 1778015703 | 26.67° C | 67% | 1015.4 hPa | 0 mm | - | 384 W/m² | - |
| 1778015403 | 26.67° C | 64% | 1015.5 hPa | 0 mm | - | 380 W/m² | - |
| 1778015103 | 26.67° C | 65% | 1015.4 hPa | 0 mm | - | 438 W/m² | - |
* Rain latest hour (hover to see other rain measurements)
** Current wind speed in m/s (hover to see current wind gust speed)